Weather History for Kinston, NC

Change the Weather History Date:

Thursday, November 1, 2012

  Actual Average Record
Temperature  
Mean Temperature 48 °F -  
Max Temperature 60 °F 68 °F 86 °F (2004)
Min Temperature 35 °F 46 °F 30 °F (1975)
Degree Days  
Heating Degree Days 18    
Moisture  
Dew Point 36 °F    
Average Humidity 74    
Maximum Humidity 100    
Minimum Humidity 39    
Precipitation  
Precipitation 0.00 in - - ()
Sea Level Pressure  
Sea Level Pressure 29.80 in    
Wind  
Wind Speed 3 mph (WSW)    
Max Wind Speed 13 mph    
Max Gust Speed 18 mph    
Visibility 10 miles    
Events      
Averages and records for this station are not official NWS values.
T = Trace of Precipitation, MM = Missing Value Source: NWS Daily Summary

Daily Weather History Graph

Daily Weather History Graph

Search for Another Location

Airport:

Trip Planner

Search our weather history database for the weather conditions in past years. The results will help you decide how hot, cold, wet, or windy it might be!

Date:

Astronomy

Nov. 01, 2012 Rise Set
Actual Time 7:32 AM EDT 6:15 PM EDT
Civil Twilight 7:06 AM EDT 6:41 PM EDT
Nautical Twilight 6:35 AM EDT 7:11 PM EDT
Astronomical Twilight 6:06 AM EDT 7:41 PM EDT
Moon 8:15 PM EDT (11/1) 9:58 AM EDT (11/1)
Length of Visible Light 11h 35m
Length of Day
10h 42m
Waning Gibbous, 93% of the Moon is Illuminated
Nov 1
Waning Gibbous
Nov 6
Last Quarter
Nov 13
New
Nov 20
First Quarter
Nov 28
Full

Hourly Weather History & Observations

Time (EDT) Temp. Windchill Dew Point Humidity Pressure Visibility Wind Dir Wind Speed Gust Speed Precip Events Conditions
12:15 AM 46.4 °F 45.2 °F 37.4 °F 71% 29.79 in 10.0 mi SW 3.5 mph - N/A   Clear
12:35 AM 44.6 °F 43.1 °F 37.4 °F 76% 29.79 in 10.0 mi SW 3.5 mph - N/A   Clear
12:55 AM 44.6 °F 43.1 °F 35.6 °F 71% 29.79 in 10.0 mi WSW 3.5 mph - N/A   Clear
1:15 AM 44.6 °F 43.1 °F 35.6 °F 71% 29.78 in 10.0 mi WSW 3.5 mph - N/A   Clear
1:35 AM 42.8 °F 41.1 °F 35.6 °F 76% 29.79 in 10.0 mi WSW 3.5 mph - N/A   Clear
1:55 AM 42.8 °F - 35.6 °F 76% 29.78 in 10.0 mi Calm Calm - N/A   Clear
2:15 AM 41.0 °F 39.0 °F 35.6 °F 81% 29.78 in 10.0 mi SW 3.5 mph - N/A   Clear
2:35 AM 41.0 °F - 35.6 °F 81% 29.78 in 10.0 mi Calm Calm - N/A   Clear
3:15 AM 42.8 °F 41.1 °F 35.6 °F 76% 29.78 in 10.0 mi WSW 3.5 mph - N/A   Clear
3:35 AM 39.2 °F - 35.6 °F 87% 29.78 in 10.0 mi Calm Calm - N/A   Clear
3:55 AM 41.0 °F - 35.6 °F 81% 29.77 in 10.0 mi Calm Calm - N/A   Clear
4:15 AM 37.4 °F 34.9 °F 33.8 °F 87% 29.77 in 10.0 mi WSW 3.5 mph - N/A   Clear
4:35 AM 37.4 °F - 33.8 °F 87% 29.77 in 10.0 mi Calm Calm - N/A   Clear
4:55 AM 37.4 °F - 35.6 °F 93% 29.77 in 10.0 mi Calm Calm - N/A   Clear
5:15 AM 37.4 °F - 35.6 °F 93% 29.77 in 10.0 mi Calm Calm - N/A   Clear
5:35 AM 35.6 °F 32.8 °F 33.8 °F 93% 29.78 in 10.0 mi SW 3.5 mph - N/A   Clear
6:15 AM 35.6 °F - 33.8 °F 93% 29.78 in 10.0 mi Calm Calm - N/A   Clear
6:35 AM 35.6 °F 32.8 °F 35.6 °F 100% 29.78 in 10.0 mi SSW 3.5 mph - N/A   Clear
6:55 AM 37.4 °F 34.9 °F 35.6 °F 93% 29.79 in 10.0 mi SW 3.5 mph - N/A   Clear
6:56 AM 37.4 °F - 35.6 °F 93% 29.79 in 10.0 mi Calm Calm - N/A   Clear
7:56 AM 39.2 °F 37.0 °F 35.6 °F 87% 29.80 in 10.0 mi WSW 3.5 mph - N/A   Clear
8:56 AM 46.4 °F 45.2 °F 39.2 °F 76% 29.82 in 10.0 mi WSW 3.5 mph - N/A   Clear
9:56 AM 51.8 °F - 39.2 °F 62% 29.82 in 10.0 mi West 6.9 mph - N/A   Clear
10:56 AM 55.4 °F - 37.4 °F 51% 29.82 in 10.0 mi West 11.5 mph - N/A   Clear
11:56 AM 57.2 °F - 35.6 °F 44% 29.81 in 10.0 mi West 9.2 mph - N/A   Clear
12:56 PM 59.0 °F - 35.6 °F 42% 29.78 in 10.0 mi West 6.9 mph 18.4 mph N/A   Scattered Clouds
1:56 PM 60.8 °F - 35.6 °F 39% 29.74 in 10.0 mi WSW 10.4 mph 16.1 mph N/A   Scattered Clouds
2:56 PM 59.0 °F - 35.6 °F 42% 29.74 in 10.0 mi West 12.7 mph 16.1 mph N/A   Scattered Clouds
3:56 PM 59.0 °F - 37.4 °F 45% 29.75 in 10.0 mi West 8.1 mph - N/A   Scattered Clouds
4:56 PM 57.2 °F - 37.4 °F 48% 29.75 in 10.0 mi WNW 10.4 mph - N/A   Mostly Cloudy
5:56 PM 55.4 °F - 37.4 °F 51% 29.77 in 10.0 mi WNW 6.9 mph - N/A   Overcast
6:56 PM 53.6 °F - 37.4 °F 54% 29.80 in 10.0 mi West 4.6 mph - N/A   Overcast
7:56 PM 50.0 °F - 37.4 °F 62% 29.81 in 10.0 mi Calm Calm - N/A   Clear
8:56 PM 42.8 °F 40.1 °F 39.2 °F 87% 29.83 in 10.0 mi SW 4.6 mph - N/A   Clear
9:15 PM 42.8 °F 41.1 °F 37.4 °F 81% 29.83 in 10.0 mi SW 3.5 mph - N/A   Clear
9:35 PM 44.6 °F 42.2 °F 37.4 °F 76% 29.84 in 10.0 mi WSW 4.6 mph - N/A   Clear
9:55 PM 42.8 °F 41.1 °F 37.4 °F 81% 29.85 in 10.0 mi SW 3.5 mph - N/A   Clear
10:15 PM 42.8 °F 40.1 °F 37.4 °F 81% 29.85 in 10.0 mi WSW 4.6 mph - N/A   Clear
10:35 PM 42.8 °F 40.1 °F 37.4 °F 81% 29.86 in 10.0 mi WSW 4.6 mph - N/A   Clear
10:55 PM 44.6 °F 43.1 °F 37.4 °F 76% 29.86 in 10.0 mi WSW 3.5 mph - N/A   Clear
11:15 PM 42.8 °F 41.1 °F 37.4 °F 81% 29.86 in 10.0 mi West 3.5 mph - N/A   Clear
11:35 PM 42.8 °F - 35.6 °F 76% 29.86 in 10.0 mi Calm Calm - N/A   Clear
11:55 PM 41.0 °F - 35.6 °F 81% 29.86 in 10.0 mi Calm Calm - N/A   Clear